Weather in Bolshoy Priklon

Russia / Vladimir Oblast     55°21′00″N   41°34′18″E
temp.,
°C
wind,
m/s
gust,
m/s
humid.,
%
clouds,
%
prec.,
mm/h
press.,
hPa
HPBL,
m
3 march, wed
wed300:00−1nw4109598 0.1 1007597
03:00−3nnw5109096 0.2 1009703
06:00−7nw4129365 0.0 1010439
09:00−6nw5119078 0.1 1012497
12:00−3nw598390 0.0 1013884
15:00−2nw598170 0.0 10121067
18:00−2w41089100 0.1 1011627
21:00−2w4119499 0.2 1010665
4 march, thu
thu400:00−2wsw51293100 0.3 1007761
03:00−2wsw61295100 0.4 1004791
06:00−1wsw61395100 0.8 1000891
09:00+1w71494100 1.4 9991069
12:00+1wnw71299100 0.6 999984
15:00+1wnw41073100 0.9 10001127
18:00−2w2684100 0.0 1000170
21:00−4nnw2292100 0.0 100126
5 march, fri
fri500:00−5nnw1295100 0.1 100073
03:00−7nnw2495100 0.2 1001110
06:00−9nnw259699 0.0 100395
09:00−8nnw249483 0.0 1005174
12:00−4nw237955 0.0 1006571
15:00−3w237858 0.0 1008867
18:00−5ssw2294100 0.1 100825
21:00−6wnw4119597 1.1 1011453
6 march, sat
sat600:00−9wnw379483 0.1 1012199
03:00−12wnw359762 0.1 1013117
06:00−13wnw259666 0.0 101498
09:00−11nw359345 0.1 1015262
12:00−8nw468295 0.0 1015787
15:00−8nw467774 0.1 1015923
18:00−12wnw238983 0.0 101540
21:00−14w239669 0.0 101539
7 march, sun
sun700:00−14wsw369411 0.0 1014116
03:00−14sw49925 0.0 1012226
06:00−12ssw6138861 0.0 1008432
09:00−9sw7149180 0.2 1004907
12:00−6sw81591100 1.2 9991232
15:00−4sw81492100 2.7 9951153
18:00−7nnw71393100 3.4 993776
21:00−9wsw2696100 3.4 994145